Centralia, IL

7:29 PM CST on December 13, 2017 (GMT -0600)
Centralia Municipal

Weather History for KENL - August, 2013

Change the Weather History Date:

Monday, August 26, 2013

  Actual Average (KSLO) Record (KSLO)
Temperature  
Mean Temperature 83 °F -  
Max Temperature 94 °F 87 °F 99 °F (1983)
Min Temperature 72 °F 63 °F 49 °F (1958)
Cooling Degree Days 18    
Growing Degree Days 33 (Base 50)    
Moisture  
Dew Point 72 °F    
Average Humidity 74    
Maximum Humidity 93    
Minimum Humidity 39    
Precipitation  
Precipitation 0.00 in - - ()
Sea Level Pressure  
Sea Level Pressure 30.18 in    
Wind  
Wind Speed 5 mph (SSW)    
Max Wind Speed 9 mph    
Max Gust Speed -    
Visibility 7 miles    
Events      
Averages and records for this station are not official NWS values.
T = Trace of Precipitation, MM = Missing Value Source: NWS Daily Summary

Daily Weather History Graph

Daily Weather History Graph

Search for Another Location

Airport or City:

Trip Planner

Search our weather history database for the weather conditions in past years. The results will help you decide how hot, cold, wet, or windy it might be!

Date:

Astronomy

Aug. 26, 2013 Rise Set
Actual Time 6:20 AM CDT 7:34 PM CDT
Civil Twilight 5:53 AM CDT 8:02 PM CDT
Nautical Twilight 5:20 AM CDT 8:35 PM CDT
Astronomical Twilight 4:45 AM CDT 9:09 PM CDT
Moon 10:50 PM CDT (8/26) 12:17 PM CDT (8/26)
Length of Visible Light 14h 09m
Length of Day
13h 14m
Waning Gibbous, 66% of the Moon is Illuminated
Aug 26
Waning Gibbous
Aug 28
Last Quarter
Sep 5
New
Sep 12
First Quarter
Sep 19
Full

Hourly Weather History & Observations

Time (CDT) Temp. Heat Index Dew Point Humidity Pressure Visibility Wind Dir Wind Speed Gust Speed Precip Events Conditions
12:15 AM 75.4 °F - 71.2 °F 87% 30.23 in 7.0 mi South 4.6 mph - N/A   Clear
12:35 AM 75.6 °F - 71.6 °F 87% 30.22 in 7.0 mi South 5.8 mph - N/A   Clear
12:55 AM 75.7 °F - 71.8 °F 87% 30.22 in 7.0 mi South 5.8 mph - N/A   Clear
1:15 AM 75.7 °F - 71.8 °F 87% 30.22 in 7.0 mi South 4.6 mph - N/A   Clear
1:35 AM 75.2 °F - 71.6 °F 89% 30.22 in 5.0 mi South 4.6 mph - N/A   Clear
1:55 AM 74.8 °F - 71.6 °F 90% 30.21 in 5.0 mi South 3.5 mph - N/A   Clear
2:15 AM 74.7 °F - 71.6 °F 90% 30.21 in 5.0 mi South 3.5 mph - N/A   Clear
2:35 AM 74.5 °F - 71.6 °F 91% 30.21 in 4.0 mi South 3.5 mph - N/A   Clear
2:55 AM 74.7 °F - 71.8 °F 91% 30.21 in 4.0 mi SSE 3.5 mph - N/A   Clear
3:15 AM 74.3 °F - 71.6 °F 91% 30.21 in 4.0 mi Calm Calm - N/A   Clear
3:35 AM 73.9 °F - 71.6 °F 92% 30.21 in 3.0 mi South 3.5 mph - N/A   Clear
3:55 AM 73.8 °F - 71.6 °F 93% 30.21 in 3.0 mi SSE 3.5 mph - N/A   Clear
4:15 AM 73.6 °F - 71.2 °F 92% 30.21 in 2.5 mi Calm Calm - N/A   Clear
4:35 AM 72.3 °F - 70.0 °F 92% 30.21 in 2.0 mi Calm Calm - N/A   Clear
4:55 AM 73.0 °F - 70.9 °F 93% 30.21 in 2.0 mi Calm Calm - N/A   Clear
5:15 AM 73.4 °F - 71.2 °F 93% 30.21 in 2.0 mi South 3.5 mph - N/A   Clear
5:35 AM 73.6 °F - 71.6 °F 93% 30.22 in 2.5 mi South 3.5 mph - N/A   Clear
5:55 AM 74.7 °F - 72.5 °F 93% 30.22 in 3.0 mi SSW 3.5 mph - N/A   Clear
6:15 AM 74.3 °F - 71.8 °F 92% 30.23 in 3.0 mi South 4.6 mph - N/A   Clear
6:35 AM 74.7 °F - 72.1 °F 92% 30.23 in 2.0 mi South 4.6 mph - N/A   Clear
6:55 AM 75.4 °F - 72.9 °F 92% 30.23 in 2.5 mi South 4.6 mph - N/A   Clear
7:15 AM 76.1 °F - 73.4 °F 91% 30.23 in 2.5 mi South 4.6 mph - N/A   Clear
7:35 AM 77.0 °F - 73.6 °F 89% 30.24 in 3.0 mi SSW 4.6 mph - N/A   Clear
7:55 AM 77.5 °F - 73.9 °F 89% 30.24 in 4.0 mi SSW 6.9 mph - N/A   Clear
8:15 AM 78.8 °F - 74.3 °F 86% 30.24 in 4.0 mi SSW 8.1 mph - N/A   Haze
8:35 AM 80.1 °F 84.8 °F 74.5 °F 83% 30.24 in 5.0 mi SSW 9.2 mph - N/A   Haze
8:55 AM 81.5 °F 87.8 °F 75.0 °F 81% 30.24 in 5.0 mi SSW 8.1 mph - N/A   Haze
9:15 AM 82.8 °F 89.8 °F 75.0 °F 77% 30.24 in 7.0 mi SW 6.9 mph - N/A   Clear
9:35 AM 84.2 °F 92.3 °F 75.2 °F 74% 30.24 in 7.0 mi SW 8.1 mph - N/A   Clear
9:55 AM 85.1 °F 93.3 °F 74.7 °F 71% 30.24 in 10.0 mi WSW 9.2 mph - N/A   Clear
10:15 AM 86.0 °F 95.1 °F 75.0 °F 70% 30.24 in 10.0 mi SW 8.1 mph - N/A   Clear
10:35 AM 87.1 °F 96.3 °F 75.0 °F 67% 30.23 in 10.0 mi WSW 6.9 mph - N/A   Clear
10:55 AM 88.0 °F 98.0 °F 75.2 °F 66% 30.23 in 10.0 mi SW 8.1 mph - N/A   Clear
11:15 AM 88.3 °F 98.4 °F 75.0 °F 65% 30.22 in 10.0 mi SSW 5.8 mph - N/A   Clear
11:35 AM 88.2 °F 98.0 °F 75.0 °F 65% 30.22 in 10.0 mi WSW 5.8 mph - N/A   Clear
11:55 AM 88.7 °F 98.2 °F 74.7 °F 63% 30.22 in 10.0 mi SW 5.8 mph - N/A   Clear
12:15 PM 90.7 °F 100.7 °F 74.5 °F 59% 30.21 in 10.0 mi SW 3.5 mph - N/A   Clear
12:35 PM 90.9 °F 99.4 °F 73.4 °F 56% 30.20 in 10.0 mi South 4.6 mph - N/A   Clear
12:55 PM 90.3 °F 98.7 °F 73.4 °F 57% 30.20 in 10.0 mi SW 6.9 mph - N/A   Clear
1:15 PM 92.1 °F 99.9 °F 72.1 °F 52% 30.19 in 10.0 mi SSW 8.1 mph - N/A   Clear
1:35 PM 91.9 °F 97.9 °F 70.3 °F 49% 30.19 in 10.0 mi Calm Calm - N/A   Clear
1:55 PM - - - N/A% 30.17 in - North - - N/A   Unknown
2:15 PM 93.7 °F 98.2 °F 68.2 °F 43% 30.17 in 10.0 mi SSW 6.9 mph - N/A   Clear
2:35 PM 93.7 °F 97.7 °F 67.6 °F 42% - - North - - N/A   Unknown
2:55 PM 94.1 °F 98.4 °F 67.6 °F 42% 30.14 in - SSW 6.9 mph - N/A   Unknown
3:15 PM 93.6 °F 97.4 °F 67.5 °F 42% 30.14 in 10.0 mi South 5.8 mph - N/A   Unknown
3:35 PM 94.1 °F 97.9 °F 66.9 °F 41% 30.13 in - Calm Calm - N/A   Unknown
3:55 PM 94.3 °F 97.2 °F 65.5 °F 39% 30.13 in - SW 8.1 mph - N/A   Unknown
4:15 PM 94.3 °F 98.2 °F 67.5 °F 41% 30.12 in - North - - N/A   Unknown
4:35 PM 93.2 °F 97.7 °F 68.2 °F 44% 30.12 in - South 6.9 mph - N/A   Unknown
4:55 PM 93.0 °F 99.5 °F 70.5 °F 48% 30.11 in 10.0 mi South 8.1 mph - N/A   Unknown
5:15 PM 91.8 °F 99.1 °F 72.1 °F 52% 30.11 in 10.0 mi South 6.9 mph - N/A   Unknown
5:35 PM 90.7 °F 97.9 °F 71.8 °F 54% 30.11 in 10.0 mi South 6.9 mph - N/A   Clear
5:55 PM 89.6 °F 96.2 °F 71.6 °F 55% 30.11 in 10.0 mi South 5.8 mph - N/A   Clear
6:15 PM 88.3 °F 95.9 °F 73.0 °F 60% 30.10 in 10.0 mi South 5.8 mph - N/A   Clear
6:35 PM 87.3 °F 95.3 °F 73.6 °F 64% 30.10 in 10.0 mi South 4.6 mph - N/A   Clear
6:55 PM 86.2 °F 93.8 °F 73.8 °F 66% 30.10 in 10.0 mi South 5.8 mph - N/A   Clear
7:15 PM 84.4 °F 91.3 °F 73.6 °F 70% 30.10 in 10.0 mi South 4.6 mph - N/A   Clear
7:35 PM 82.9 °F 89.1 °F 73.4 °F 73% 30.10 in 10.0 mi South 5.8 mph - N/A   Clear
7:55 PM 81.5 °F 86.5 °F 73.0 °F 75% 30.10 in 10.0 mi South 5.8 mph - N/A   Clear
8:15 PM 81.5 °F 86.5 °F 72.9 °F 75% 30.10 in 10.0 mi South 5.8 mph - N/A   Clear
8:35 PM 80.4 °F 84.8 °F 72.9 °F 78% 30.10 in 7.0 mi South 5.8 mph - N/A   Clear
8:55 PM 80.1 °F 84.2 °F 73.0 °F 79% 30.11 in 10.0 mi South 5.8 mph - N/A   Clear
9:15 PM 80.2 °F 84.6 °F 73.2 °F 79% 30.11 in 10.0 mi South 5.8 mph - N/A   Clear
9:35 PM 79.9 °F - 73.0 °F 80% 30.10 in 10.0 mi South 5.8 mph - N/A   Clear
9:55 PM 79.7 °F - 73.0 °F 80% 30.10 in 10.0 mi South 6.9 mph - N/A   Clear
10:15 PM 79.7 °F - 73.2 °F 80% 30.10 in 10.0 mi South 5.8 mph - N/A   Clear
10:35 PM 80.1 °F 84.4 °F 73.2 °F 80% 30.10 in 10.0 mi South 6.9 mph - N/A   Clear
10:55 PM 79.7 °F - 73.0 °F 80% 30.10 in 10.0 mi South 5.8 mph - N/A   Clear
11:15 PM 78.8 °F - 72.9 °F 82% 30.10 in 10.0 mi South 5.8 mph - N/A   Clear
11:35 PM 79.2 °F - 73.0 °F 81% 30.10 in 10.0 mi South 5.8 mph - N/A   Clear
11:55 PM 79.7 °F - 73.4 °F 81% 30.11 in 10.0 mi SSW 5.8 mph - N/A   Clear